TimeCDT,TemperatureF,Dew PointF,Humidity,Sea Level PressureIn,VisibilityMPH,Wind Direction,Wind SpeedMPH,Gust SpeedMPH,PrecipitationIn,Events,Conditions,WindDirDegrees,DateUTC
12:15 AM,60.8,59.0,94,29.50,5.0,SE,35.7,46.0,N/A,Rain-Thunderstorm,Light Thunderstorms and Rain,140,2013-04-18 05:15:00
12:35 AM,60.8,55.4,82,29.57,10.0,WNW,8.1,25.3,N/A,,Overcast,300,2013-04-18 05:35:00
12:55 AM,59.0,57.2,94,29.57,10.0,WNW,12.7,-,N/A,Thunderstorm,Mostly Cloudy,290,2013-04-18 05:55:00
1:15 AM,55.4,53.6,94,29.57,10.0,North,15.0,-,N/A,,Mostly Cloudy,350,2013-04-18 06:15:00
1:35 AM,50.0,50.0,100,29.59,10.0,NNW,21.9,28.8,N/A,,Overcast,330,2013-04-18 06:35:00
1:55 AM,48.2,46.4,93,29.54,10.0,North,17.3,24.2,N/A,,Overcast,10,2013-04-18 06:55:00
2:15 AM,48.2,46.4,93,29.56,10.0,North,15.0,21.9,N/A,,Overcast,360,2013-04-18 07:15:00
2:35 AM,48.2,46.4,93,29.58,10.0,North,6.9,-,N/A,Thunderstorm,Overcast,360,2013-04-18 07:35:00
2:55 AM,48.2,46.4,93,29.58,10.0,North,11.5,-,N/A,,Overcast,350,2013-04-18 07:55:00
3:15 AM,46.4,46.4,100,29.57,10.0,NNW,16.1,20.7,N/A,,Overcast,340,2013-04-18 08:15:00
3:35 AM,46.4,44.6,93,29.57,10.0,NNW,18.4,-,N/A,,Overcast,340,2013-04-18 08:35:00
3:55 AM,44.6,44.6,100,29.60,7.0,NW,18.4,24.2,N/A,Rain-Thunderstorm,Thunderstorms and Rain,320,2013-04-18 08:55:00
4:15 AM,44.6,44.6,100,29.60,10.0,NNW,20.7,26.5,N/A,Rain,Light Rain,340,2013-04-18 09:15:00
4:35 AM,44.6,42.8,93,29.60,7.0,NNW,18.4,25.3,N/A,,Light Drizzle,330,2013-04-18 09:35:00
4:55 AM,44.6,42.8,93,29.66,5.0,NW,16.1,20.7,N/A,Rain-Thunderstorm,Light Thunderstorms and Rain,310,2013-04-18 09:55:00
5:15 AM,42.8,41.0,93,29.70,5.0,WNW,17.3,28.8,N/A,Rain-Thunderstorm,Light Thunderstorms and Rain,300,2013-04-18 10:15:00
5:35 AM,42.8,41.0,93,29.68,5.0,NW,16.1,24.2,N/A,Rain-Thunderstorm,Light Thunderstorms and Rain,310,2013-04-18 10:35:00
5:55 AM,41.0,41.0,100,29.65,10.0,NNW,15.0,-,N/A,,Overcast,330,2013-04-18 10:55:00
6:15 AM,41.0,39.2,93,29.67,10.0,NNW,18.4,25.3,N/A,,Overcast,330,2013-04-18 11:15:00
6:35 AM,41.0,37.4,87,29.69,10.0,NW,18.4,25.3,N/A,,Overcast,320,2013-04-18 11:35:00
6:55 AM,41.0,37.4,87,29.72,10.0,NW,16.1,24.2,N/A,,Overcast,320,2013-04-18 11:55:00
7:15 AM,41.0,35.6,81,29.74,10.0,NW,18.4,33.4,N/A,,Overcast,320,2013-04-18 12:15:00
7:35 AM,39.2,37.4,93,29.75,10.0,NW,18.4,25.3,N/A,,Overcast,320,2013-04-18 12:35:00
7:55 AM,39.2,35.6,87,29.78,10.0,NW,15.0,32.2,N/A,,Overcast,320,2013-04-18 12:55:00
8:15 AM,37.4,35.6,93,29.79,2.0,NW,19.6,28.8,N/A,,Overcast,310,2013-04-18 13:15:00
8:35 AM,37.4,35.6,93,29.79,5.0,NW,24.2,33.4,N/A,,Overcast,320,2013-04-18 13:35:00
8:55 AM,37.4,35.6,93,29.80,10.0,NW,21.9,26.5,N/A,,Overcast,310,2013-04-18 13:55:00
9:15 AM,37.4,35.6,93,29.83,10.0,NW,18.4,24.2,N/A,,Overcast,310,2013-04-18 14:15:00
9:35 AM,37.4,33.8,87,29.84,10.0,NW,18.4,23.0,N/A,,Overcast,310,2013-04-18 14:35:00
9:55 AM,37.4,33.8,87,29.86,10.0,NW,19.6,26.5,N/A,,Overcast,310,2013-04-18 14:55:00
10:15 AM,37.4,33.8,87,29.87,10.0,NW,18.4,29.9,N/A,,Overcast,310,2013-04-18 15:15:00
10:35 AM,37.4,33.8,87,29.87,10.0,NW,16.1,27.6,N/A,,Overcast,320,2013-04-18 15:35:00
10:55 AM,37.4,32.0,81,29.89,10.0,NW,25.3,31.1,N/A,,Overcast,310,2013-04-18 15:55:00
11:15 AM,37.4,32.0,81,29.90,10.0,NW,20.7,27.6,N/A,,Overcast,310,2013-04-18 16:15:00
11:35 AM,37.4,32.0,81,29.90,10.0,NW,19.6,25.3,N/A,,Overcast,310,2013-04-18 16:35:00
11:55 AM,41.0,33.8,76,29.89,10.0,NW,16.1,-,N/A,,Overcast,320,2013-04-18 16:55:00
12:15 PM,41.0,33.8,76,29.89,10.0,NW,24.2,27.6,N/A,,Overcast,310,2013-04-18 17:15:00
12:35 PM,41.0,32.0,70,29.89,10.0,NW,21.9,32.2,N/A,,Overcast,320,2013-04-18 17:35:00
12:55 PM,41.0,33.8,76,29.90,10.0,WNW,20.7,25.3,N/A,,Overcast,300,2013-04-18 17:55:00
1:15 PM,41.0,33.8,76,29.90,10.0,WNW,18.4,24.2,N/A,,Overcast,300,2013-04-18 18:15:00
1:35 PM,41.0,32.0,70,29.90,10.0,NW,24.2,28.8,N/A,,Overcast,320,2013-04-18 18:35:00
1:55 PM,41.0,32.0,70,29.90,10.0,NW,24.2,29.9,N/A,,Overcast,310,2013-04-18 18:55:00
2:15 PM,41.0,33.8,76,29.90,10.0,NW,19.6,25.3,N/A,,Overcast,310,2013-04-18 19:15:00
2:35 PM,41.0,32.0,70,29.92,10.0,NW,20.7,32.2,N/A,,Overcast,320,2013-04-18 19:35:00
2:55 PM,42.8,33.8,70,29.92,10.0,WNW,17.3,23.0,N/A,,Overcast,300,2013-04-18 19:55:00
3:35 PM,42.8,32.0,66,29.91,10.0,NW,19.6,25.3,N/A,,Overcast,310,2013-04-18 20:35:00
3:55 PM,42.8,32.0,66,29.92,10.0,NW,24.2,31.1,N/A,,Overcast,310,2013-04-18 20:55:00
4:15 PM,42.8,32.0,66,29.93,10.0,NW,20.7,31.1,N/A,,Overcast,310,2013-04-18 21:15:00
4:35 PM,42.8,32.0,66,29.94,10.0,WNW,19.6,27.6,N/A,,Overcast,300,2013-04-18 21:35:00
4:55 PM,42.8,32.0,66,29.95,10.0,NW,20.7,28.8,N/A,,Overcast,310,2013-04-18 21:55:00
5:15 PM,42.8,32.0,66,29.95,10.0,NW,23.0,31.1,N/A,,Overcast,320,2013-04-18 22:15:00
5:35 PM,41.0,32.0,70,29.96,10.0,NW,18.4,27.6,N/A,,Overcast,310,2013-04-18 22:35:00
5:55 PM,41.0,32.0,70,29.97,10.0,NW,16.1,26.5,N/A,,Overcast,320,2013-04-18 22:55:00
6:15 PM,41.0,32.0,70,29.97,10.0,NW,18.4,28.8,N/A,,Overcast,310,2013-04-18 23:15:00
6:35 PM,41.0,32.0,70,29.98,10.0,WNW,18.4,28.8,N/A,,Overcast,300,2013-04-18 23:35:00
6:55 PM,41.0,32.0,70,29.98,10.0,NW,16.1,23.0,N/A,,Overcast,320,2013-04-18 23:55:00
7:15 PM,41.0,32.0,70,29.99,10.0,WNW,18.4,27.6,N/A,,Overcast,300,2013-04-19 00:15:00
7:35 PM,39.2,30.2,70,30.00,10.0,NW,20.7,28.8,N/A,,Overcast,310,2013-04-19 00:35:00
7:55 PM,39.2,30.2,70,30.01,10.0,NW,19.6,26.5,N/A,,Overcast,320,2013-04-19 00:55:00
8:15 PM,37.4,30.2,75,30.02,10.0,NW,18.4,25.3,N/A,,Overcast,320,2013-04-19 01:15:00
8:35 PM,37.4,28.4,70,30.03,10.0,NW,18.4,24.2,N/A,,Overcast,320,2013-04-19 01:35:00
10:35 PM,37.4,30.2,75,30.06,10.0,WNW,8.1,-,N/A,,Overcast,290,2013-04-19 03:35:00
10:55 PM,37.4,30.2,75,30.06,10.0,West,9.2,-,N/A,,Overcast,280,2013-04-19 03:55:00
11:15 PM,37.4,30.2,75,30.05,10.0,West,6.9,-,N/A,,Overcast,280,2013-04-19 04:15:00
11:35 PM,37.4,30.2,75,30.05,10.0,WNW,11.5,-,N/A,,Overcast,290,2013-04-19 04:35:00
11:55 PM,37.4,30.2,75,30.05,10.0,West,10.4,-,N/A,,Overcast,280,2013-04-19 04:55:00